Location: Unspecified
(0.0000°N, 0.0000°E)
Time: 14:30:17
(UTC+02:00)

CZ-4B DEB - Visible Passes

Search period start: 05 August 2015 00:00
Search period end: 15 August 2015 00:00
Orbit: 476 x 484 km, 97.5° (Epoch: 04 August)

Date Brightness Start Highest point End Pass type
(mag) Time Alt. Az. Time Alt. Az. Time Alt. Az.
05 Aug 4.0 20:29:36 10° SE 20:32:40 28° E 20:35:47 10° NNE visible
06 Aug 5.8 21:37:41 10° SW 21:40:15 18° W 21:42:41 10° WNW visible
07 Aug 4.0 21:11:07 10° S 21:14:35 48° W 21:18:01 10° NNW visible
08 Aug 3.1 20:45:26 10° SSE 20:48:56 54° E 20:52:25 10° N visible
10 Aug 5.2 21:27:38 10° SSW 21:30:41 26° W 21:33:40 10° NW visible
11 Aug 3.2 21:01:22 10° S 21:04:56 76° WSW 21:08:29 10° NNW visible
12 Aug 3.7 20:35:53 10° SE 20:39:10 35° E 20:42:28 10° NNE visible
13 Aug 6.1 21:44:25 10° SW 21:46:33 15° W 21:48:32 10° WNW visible
14 Aug 4.5 21:17:20 10° S 21:20:41 38° W 21:24:01 10° NNW visible
